STARLINK-32767 (62601 NORAD) Tracking and Keplerian Element Data

This shows tracking and keplerian element data for the satellite.

Feedback or suggestion? Click here.




ElementValue
Catalog62601
NameSTARLINK-32767
Epoch Orbit461
Epoch Day34.83335648
Epoch Year2025
RAAN13.8509
Inclination43.0002
Eccentricity0.0001606
Argument of Perigee265.6535
Mean Anonmoly155.4822
Mean Motion15.50580793
Decay Rate-8.189E-05
L11 62601U 25008Q 25034.83335648 -.00008189 00000+0 -13390-3 0 9990
L22 62601 43.0002 13.8509 0001606 265.6535 155.4822 15.50580793 4618



Live tracking and technical data element details for STARLINK-32767 (NORAD 62601). STARLINK-32767 can be tracked NOW for your location showing map with azimuth and elevation plus other details from your city location.







IsCatalogInMostPopularTable: catalog: 62601, numindb: 2
Update: records affected: 1



GetName: 62601 STARLINK-32767

Hit Count: updated at: Sun, 09 Feb 2025 14:52:13 GMT